Regional Weather Roundup
Issued by NWS

Home | Current Version | Previous Version | Graphics & Text | Print | Product List | Glossary On
Versions: 1 2 3 4 5 6 7 8 9 10 11 12 13 14 15 16 17 18 19 20 21 22 23 24 25 26 27 28 29 30 31 32 33 34 35 36 37 38 39 40 41 42 43 44 45 46 47 48 49 50
161
ASUS43 KDMX 061908
RWRIA

WEATHER ROUNDUP FOR IOWA
NATIONAL WEATHER SERVICE DES MOINES IA
100 PM CST SAT FEB 06 2016

NOTE: "FAIR" INDICATES FEW OR NO CLOUDS BELOW 12,000 FEET WITH NO
SIGNIFICANT WEATHER AND/OR OBSTRUCTIONS TO VISIBILITY.

* - THESE STATIONS ARE NOT NWS STATIONS...THUS NOT UNDER NWS
QUALITY CONTROL.  THEY ALSO DO NOT REPORT WEATHER SUCH
AS PRECIPITATION OR FOG.

IAZ001>003-012>014-020>022-031>034-043>046-062000-
   NORTHWEST IOWA

CITY           SKY/WX    TMP DP  RH WIND       PRES   REMARKS
CARROLL *      PTSUNNY   32  30  93 SW16      30.14F FOG     WCI  21
CHEROKEE *     MOSUNNY   34  28  80 S14       30.09F WCI  24
DENISON *      SUNNY     32  28  86 SW13      30.11F WCI  22
LE MARS *      SUNNY     32  30  93 S14       30.07F WCI  22
ORANGE CITY *  SUNNY     28  28 100 S13       30.04F WCI  18
SHELDON *      SUNNY     30  27  86 S16       30.02F WCI  19
SIOUX CITY     CLOUDY    36  26  67 S12       30.09F WCI  28
SPENCER        SUNNY     32  27  81 S14       30.05F WCI  22
STORM LAKE *   SUNNY     30  30 100 SW14      30.09F WCI  20
$$

IAZ055>058-069>071-079>083-090>094-062000-
   SOUTHWEST IOWA

CITY           SKY/WX    TMP DP  RH WIND       PRES   REMARKS
ATLANTIC *     MOSUNNY   32  30  93 SW10      30.18F WCI  24
AUDUBON *      PTSUNNY   32  30  93 SW9G18    30.17F FOG     WCI  24
CLARINDA *     CLOUDY    41  34  75 SW14      30.23F
COUNCIL BLFS * SUNNY     36  28  75 SW10      30.17F WCI  28
CRESTON *      CLOUDY    32  32 100 SW10      30.21F WCI  24
HARLAN  *      SUNNY     32  28  86 SW12      30.20F WCI  23
LAMONI         CLOUDY    31  30  96 SW12      30.21F FOG     WCI  22
RED OAK *      SUNNY     37  32  81 SW12      30.21F WCI  30
SHENANDOAH *   SUNNY     39  36  87 W14       30.23F WCI  31
$$

IAZ047>049-059>061-072>074-084-062000-
   CENTRAL IOWA

CITY           SKY/WX    TMP DP  RH WIND       PRES   REMARKS
AMES           CLOUDY    30  27  88 SW15      30.18F FOG     WCI  19
ANKENY *       CLOUDY    32  30  93 SW7       30.19F WCI  26
BOONE *        CLOUDY    28  28 100 SW13      30.14F FOG     WCI  18
CHARITON *     CLOUDY    32  30  93 W9        30.20F WCI  24
DES MOINES     CLOUDY    33  28  81 SW10      30.20F WCI  25
GRINNELL*      CLOUDY    32  30  93 SW12      30.18S FOG     WCI  23
KNOXVILLE *    CLOUDY    32  30  93 SW9       30.18F WCI  24
MARSHALLTOWN   CLOUDY    30  27  88 SW13      30.16F FOG     WCI  20
NEWTON *       CLOUDY    30  30 100 SW13      30.19R FOG     WCI  20
PELLA *        CLOUDY    32  30  93 SW8       30.20F FOG     WCI  25
$$

IAZ004>006-015-016-023>025-035-036-062000-
   NORTH CENTRAL IOWA

CITY           SKY/WX    TMP DP  RH WIND       PRES   REMARKS
ALGONA *       CLOUDY    30  30 100 SW21      30.09F FOG     WCI  17
CLARION *      FOG       28  28 100 SW18      30.12F VSB 3/4 WCI  16
ESTHERVILLE    SUNNY     30  27  88 SW20      30.04F WCI  17
FORT DODGE *   CLOUDY    30  27  86 SW14      30.13F WCI  20
MASON CITY     CLOUDY    28  28 100 S13       30.12F FOG     WCI  17
FOREST CITY *  CLOUDY    28  28 100 SW15      30.09F FOG     WCI  17
WEBSTER CITY * CLOUDY    30  28  93 SW15      30.12F FOG     WCI  19
IOWA FALLS *   CLOUDY    30  28  93 SW16      30.16F FOG     WCI  19
$$

IAZ007>011-017>019-026>030-037>042-050>054-066-062000-
   NORTHEAST IOWA

CITY           SKY/WX    TMP DP  RH WIND       PRES   REMARKS
CEDAR RAPIDS   PTSUNNY   35  30  82 SW5       30.16F WCI  31
CHARLES CITY * CLOUDY    28  28 100 SW13      30.14F FOG     WCI  18
CLINTON *      SUNNY     39  29  67 SW14      30.19F WCI  31
DECORAH *      CLOUDY    28  27  93 SW9       30.12F WCI  20
DUBUQUE        CLOUDY    30  27  88 W13       30.16F WCI  20
MONTICELLO *   CLOUDY    32  28  86 SW8       30.18F WCI  25
OELWEIN *      CLOUDY    30  28  93 W10       30.16F WCI  21
WATERLOO       CLOUDY    29  26  89 W13       30.16F FOG     WCI  19
$$

IAZ064-065-067-068-078-062000-
   EAST CENTRAL IOWA

CITY           SKY/WX    TMP DP  RH WIND       PRES   REMARKS
DAVENPORT      SUNNY     39  29  67 W9        30.19F WCI  33
IOWA CITY      MOSUNNY   39  30  70 W7        30.20F WCI  34
MT. PLEASANT * SUNNY     45  32  61 SW10      30.20F
MUSCATINE *    MOSUNNY   43  30  61 W7G14     30.21F
QUAD CITIES    SUNNY     43  25  49 SW14      30.19F
$$

IAZ062-063-075>077-085>089-095>099-062000-
   SOUTHEAST IOWA

CITY           SKY/WX    TMP DP  RH WIND       PRES   REMARKS
BURLINGTON     SUNNY     43  28  55 S7        30.19F
FAIRFIELD *    MOSUNNY   41  30  65 SW7G16    30.19F
FORT MADISON * SUNNY     43  28  56 SW8       30.21F
KEOKUK *       SUNNY     45  28  53 SW12      30.20F
OSKALOOSA *      N/A     39  32  75 SW9       30.19F WCI  33
CENTERVILLE *    N/A    N/A N/A N/A MISG        N/A
OTTUMWA        SUNNY     41  31  67 SW8       30.18F
WASHINGTON *   SUNNY     41  32  70 SW13      30.20F
$$

ABBREVIATIONS USED IN REMARKS
   TC - TEMPERATURES IN CELSIUS
  WCI - WIND CHILL INDEX
   HX - HEAT INDEX
  VSB - VISIBILITY
$$





USA.gov is the U.S. government's official web portal to all federal, state and local government web resources and services.